User: anonymous   Login
Location: Trondheim
(63.4170°N, 10.4170°E)
Time: 00:28:49
(UTC+02:00)
Language:

Iridium 82 - Orbit

View from above orbital plane
View from above orbital plane
View from above satellite
View from above satellite

Ground track
Ground track

The orbit data is extracted from the following two-line orbital elements,

1 25467U 98051A   17231.43295363  .00001759  00000-0  13177-3 0  9990
2 25467  86.4041 351.6631 0183767 165.0107 195.6673 14.89337117996269
Epoch (UTC): 19 August 2017 10:23:27
Eccentricity: 0.0183767
inclination: 86.4041°
perigee height: 472 km
apogee height: 728 km
right ascension of ascending node: 351.6631°
argument of perigee: 165.0107°
revolutions per day: 14.89337117
mean anomaly at epoch: 195.6673°
orbit number at epoch: 99626

The dashed part of the orbit path shows where the satellite is in the earth's shadow,  

DLR